sat.trackr.live / text

‹ back to catalog

STARLINK-35276

NORAD 66009 · 2025-232E

PAYLOAD ACTIVE UNKNOWN

§ Identity

Operator
Country
US
Launch date
2025-10-16
Launch site
AFETR
Launch vehicle
Mass (kg)
RCS (m²)

Purposes: comms

External: N2YO · Heavens-Above · Gunter

§ Orbital elements

Epoch: 2026-05-25T03:47:42.425088Z

Period
94.10 min
Inclination
53.1612°
Eccentricity
0.0000914
Mean motion
15.30208331 rev/d
Perigee alt
474.6 km
Apogee alt
475.8 km
Semi-major
6,853.3 km
B*
4.8963e-4
RAAN
108.6916°
Arg perigee
77.1528°
Mean anomaly
282.9575°
Rev number
3,512

§ Raw data

STARLINK-352761 66009U 25232E   26145.15812992  .00014174  00000+0  48963-3 0  99992 66009  53.1612 108.6916 0000914  77.1528 282.9575 15.30208331 35121

JSON: /api/v1/satellites/66009 · /tle

For live sub-satellite position, see the globe view (requires WebGL).

§ Visibility from observer

Set your observer location to see the next 7 days of passes ≥ 10°. The values pass through the URL so the page stays shareable.

No JS? Fill the form by hand. The geolocation button needs JavaScript.